Terug naar catalogus

COSMOS 1477

ActiefMilitairLEO
NORAD 14175·PAYLOAD·🇷🇺 Russia

Gelanceerd Jul 6, 1983 vanaf Plesetsk Cosmodrome

Loading…

Volgende Passages (komende 24 uur)

TLE

VersSource: Space-Track

Epoch: Sep 14, 2026, 19:44 UTC

1 14175U 83069E   26257.82277637 -.00000005  00000-0  74182-4 0  9990
2 14175  74.0262 195.5668 0001919  14.1459  12.6140 12.50458266971791

Volg COSMOS 1477 in realtime met AllMySat

Download on the App Store